Tracking 22836 objects as of 16-Apr-2021
HD Live streaming from Space Station
objects crossing your sky now

STARLINK-1321

Track STARLINK-1321 now!
10-day predictions
STARLINK-1321 is classified as:


NORAD ID: 45573
Int'l Code: 2020-025AU
Perigee: 553.4 km
Apogee: 555.2 km
Inclination: 53.1 °
Period: 95.6 minutes
Semi major axis: 6925 km
RCS: Unknown
Launch date: April 22, 2020
Source: United States (US)
Launch site: AIR FORCE EASTERN TEST RANGE (AFETR)
aabbcc
Your satellite tracking list
Your tracking list is empty




NASA's NSSDC Master Catalog

Two Line Element Set (TLE):
1 45573U 20025AU  21105.69652829  .00000706  00000-0  66285-4 0  9993
2 45573  53.0562 187.7027 0001299 129.3742 230.7362 15.06404115 55569
Source of the keplerian elements: AFSPC